Location: Brno
(49.2000°N, 16.6330°E)
Time: 03:03:06
(UTC+02:00)

Iridium 2 - Visible Passes

Search period start: 31 July 2015 00:00
Search period end: 10 August 2015 00:00
Orbit: 518 x 536 km, 85.5° (Epoch: 30 July)

Date Brightness Start Highest point End Pass type
(mag) Time Alt. Az. Time Alt. Az. Time Alt. Az.
31 Jul 4.9 21:25:02 10° NNW 21:28:44 44° W 21:32:24 10° SSW visible
01 Aug 4.6 21:13:34 10° NNW 21:17:20 51° W 21:21:03 10° SSW visible
02 Aug 4.4 21:02:07 10° NNW 21:05:56 59° W 21:09:43 10° S visible
07 Aug 7.0 21:42:40 10° WNW 21:43:54 11° W 21:44:57 10° W visible
08 Aug 6.9 21:30:44 10° NW 21:32:31 13° W 21:34:08 10° WSW visible
09 Aug 6.8 21:18:57 10° NW 21:21:07 14° W 21:23:09 10° WSW visible
